When you browse on this site, cookies collect data to enhance your experience and personalize the content and advertising you see.
Visit our Privacy Policy to learn more. By continuing to use the site, you agree to this use of cookies and data.
  • en Suisse
  • Liste des pays
  • À 7 jours
  • Température de l'eau
  • Carte satellitaire
  • Carte météo
  • Widgets météo
  • user-avatar
    Se connecter

    Météo par heure à Plavni

    Ce jour, 21 Juillet, Dimanche

    Heure Température Précipitation Vent Pression Humidité
    00:00 +21°C° 0 mm 1 m/s 756 mmHg 69%
    01:00 +20°C° 0 mm 1 m/s 756 mmHg 70%
    02:00 +20°C° 0 mm 1 m/s 756 mmHg 72%
    03:00 +20°C° 0 mm 1 m/s 756 mmHg 72%
    04:00 +18°C° 0 mm 0 m/s 756 mmHg 72%
    05:00 +18°C° 0 mm 0 m/s 756 mmHg 73%
    06:00 +22°C° 0 mm 1 m/s 756 mmHg 67%
    07:00 +24°C° 0 mm 1 m/s 756 mmHg 62%
    08:00 +26°C° 0 mm 1 m/s 756 mmHg 57%
    09:00 +27°C° 0.1 mm 1 m/s 756 mmHg 53%
    10:00 +28°C° 0.1 mm 1 m/s 756 mmHg 49%
    11:00 +29°C° 0.1 mm 1 m/s 756 mmHg 45%
    12:00 +29°C° 0 mm 1 m/s 756 mmHg 44%
    13:00 +30°C° 0 mm 2 m/s 756 mmHg 43%
    14:00 +30°C° 0 mm 2 m/s 755 mmHg 42%
    15:00 +30°C° 0 mm 2 m/s 755 mmHg 43%
    16:00 +29°C° 0 mm 1 m/s 755 mmHg 45%
    17:00 +29°C° 0 mm 1 m/s 755 mmHg 46%
    18:00 +27°C° 0 mm 1 m/s 755 mmHg 51%
    19:00 +25°C° 0 mm 1 m/s 755 mmHg 56%
    20:00 +22°C° 0 mm 0 m/s 755 mmHg 61%
    21:00 +23°C° 0.2 mm 1 m/s 755 mmHg 65%
    22:00 +22°C° 0.2 mm 1 m/s 756 mmHg 69%
    23:00 +21°C° 0.2 mm 1 m/s 756 mmHg 72%

    Demain, 22 Juillet, Lundi

    Heure Température Précipitation Vent Pression Humidité
    00:00 +21°C° 0.1 mm 1 m/s 756 mmHg 74%
    01:00 +21°C° 0.1 mm 1 m/s 756 mmHg 76%
    02:00 +20°C° 0.1 mm 1 m/s 756 mmHg 78%
    03:00 +20°C° 0 mm 1 m/s 755 mmHg 78%
    04:00 +20°C° 0 mm 1 m/s 755 mmHg 79%
    05:00 +20°C° 0 mm 1 m/s 755 mmHg 79%
    06:00 +22°C° 0 mm 1 m/s 755 mmHg 72%
    07:00 +24°C° 0 mm 1 m/s 755 mmHg 65%
    08:00 +26°C° 0 mm 2 m/s 755 mmHg 58%
    09:00 +28°C° 0 mm 2 m/s 755 mmHg 53%
    10:00 +29°C° 0 mm 2 m/s 755 mmHg 48%
    11:00 +31°C° 0 mm 3 m/s 754 mmHg 42%
    12:00 +31°C° 0 mm 3 m/s 754 mmHg 42%
    13:00 +31°C° 0 mm 3 m/s 754 mmHg 43%
    14:00 +31°C° 0 mm 3 m/s 753 mmHg 43%
    15:00 +31°C° 0 mm 3 m/s 753 mmHg 45%
    16:00 +30°C° 0 mm 3 m/s 753 mmHg 47%
    17:00 +30°C° 0 mm 3 m/s 752 mmHg 50%
    18:00 +28°C° 0.1 mm 3 m/s 752 mmHg 56%
    19:00 +27°C° 0.1 mm 3 m/s 752 mmHg 63%
    20:00 +25°C° 0.1 mm 3 m/s 752 mmHg 69%
    21:00 +24°C° 0.6 mm 3 m/s 752 mmHg 77%
    22:00 +21°C° 0.6 mm 3 m/s 752 mmHg 85%
    23:00 +20°C° 0.6 mm 3 m/s 752 mmHg 93%

    Après-demain, 23 Juillet, Mardi

    Heure Température Précipitation Vent Pression Humidité
    00:00 +20°C° 0 mm 3 m/s 752 mmHg 94%
    01:00 +19°C° 0 mm 3 m/s 752 mmHg 95%
    02:00 +19°C° 0 mm 3 m/s 752 mmHg 96%
    03:00 +18°C° 0 mm 3 m/s 752 mmHg 95%
    04:00 +18°C° 0 mm 3 m/s 752 mmHg 95%
    05:00 +18°C° 0 mm 3 m/s 752 mmHg 94%
    06:00 +19°C° 0 mm 3 m/s 752 mmHg 90%
    07:00 +19°C° 0 mm 3 m/s 752 mmHg 86%
    08:00 +20°C° 0 mm 3 m/s 752 mmHg 82%
    09:00 +21°C° 0 mm 3 m/s 752 mmHg 76%
    10:00 +24°C° 0 mm 3 m/s 752 mmHg 70%
    11:00 +25°C° 0 mm 3 m/s 752 mmHg 64%
    12:00 +25°C° 0.4 mm 3 m/s 752 mmHg 62%
    13:00 +25°C° 0.4 mm 2 m/s 752 mmHg 60%
    14:00 +26°C° 0.4 mm 2 m/s 752 mmHg 59%
    15:00 +25°C° 1 mm 3 m/s 752 mmHg 65%
    16:00 +23°C° 1 mm 4 m/s 752 mmHg 70%
    17:00 +22°C° 1 mm 4 m/s 752 mmHg 76%
    18:00 +21°C° 0.6 mm 4 m/s 752 mmHg 80%
    19:00 +20°C° 0.6 mm 3 m/s 752 mmHg 84%
    20:00 +19°C° 0.6 mm 3 m/s 752 mmHg 88%
    21:00 +19°C° 0 mm 3 m/s 752 mmHg 87%
    22:00 +18°C° 0 mm 2 m/s 752 mmHg 87%
    23:00 +18°C° 0 mm 2 m/s 752 mmHg 87%

    24 Juillet, Mercredi

    Heure Température Précipitation Vent Pression Humidité
    00:00 +18°C° 0 mm 2 m/s 752 mmHg 87%
    01:00 +18°C° 0 mm 2 m/s 751 mmHg 87%
    02:00 +18°C° 0 mm 2 m/s 751 mmHg 88%
    03:00 +18°C° 0 mm 3 m/s 751 mmHg 87%
    04:00 +17°C° 0 mm 3 m/s 751 mmHg 87%
    05:00 +17°C° 0 mm 3 m/s 751 mmHg 86%
    06:00 +18°C° 0.1 mm 3 m/s 751 mmHg 83%
    07:00 +19°C° 0.1 mm 3 m/s 751 mmHg 80%
    08:00 +20°C° 0.1 mm 3 m/s 751 mmHg 77%
    09:00 +20°C° 0.2 mm 3 m/s 751 mmHg 78%
    10:00 +20°C° 0.2 mm 3 m/s 751 mmHg 79%
    11:00 +20°C° 0.2 mm 3 m/s 750 mmHg 80%
    12:00 +21°C° 0.3 mm 3 m/s 750 mmHg 78%
    13:00 +21°C° 0.3 mm 3 m/s 750 mmHg 76%
    14:00 +22°C° 0.3 mm 3 m/s 750 mmHg 75%
    15:00 +22°C° 0.2 mm 4 m/s 750 mmHg 73%
    16:00 +22°C° 0.2 mm 4 m/s 750 mmHg 72%
    17:00 +23°C° 0.2 mm 4 m/s 750 mmHg 70%
    18:00 +22°C° 0.1 mm 4 m/s 750 mmHg 76%
    19:00 +21°C° 0.1 mm 4 m/s 750 mmHg 82%
    20:00 +19°C° 0.1 mm 3 m/s 750 mmHg 88%
    21:00 +19°C° 0 mm 4 m/s 750 mmHg 88%
    22:00 +19°C° 0 mm 4 m/s 750 mmHg 88%
    23:00 +19°C° 0 mm 4 m/s 750 mmHg 88%

    25 Juillet, Jeudi

    Heure Température Précipitation Vent Pression Humidité
    00:00 +18°C° 0 mm 4 m/s 750 mmHg 89%
    01:00 +18°C° 0 mm 4 m/s 750 mmHg 90%
    02:00 +17°C° 0 mm 4 m/s 750 mmHg 92%
    03:00 +17°C° 0 mm 5 m/s 750 mmHg 91%
    04:00 +17°C° 0 mm 5 m/s 751 mmHg 90%
    05:00 +17°C° 0 mm 5 m/s 751 mmHg 89%
    06:00 +19°C° 0.1 mm 5 m/s 751 mmHg 88%
    07:00 +20°C° 0.1 mm 5 m/s 751 mmHg 87%
    08:00 +20°C° 0.1 mm 5 m/s 751 mmHg 86%
    09:00 +22°C° 0.3 mm 5 m/s 752 mmHg 79%
    10:00 +23°C° 0.3 mm 5 m/s 752 mmHg 73%
    11:00 +26°C° 0.3 mm 6 m/s 752 mmHg 67%
    12:00 +26°C° 0.5 mm 6 m/s 752 mmHg 64%
    13:00 +27°C° 0.5 mm 6 m/s 752 mmHg 62%
    14:00 +28°C° 0.5 mm 7 m/s 751 mmHg 59%
    15:00 +27°C° 0.3 mm 7 m/s 752 mmHg 60%
    16:00 +27°C° 0.3 mm 6 m/s 752 mmHg 61%
    17:00 +27°C° 0.3 mm 6 m/s 752 mmHg 62%
    18:00 +25°C° 0 mm 5 m/s 752 mmHg 68%
    19:00 +22°C° 0 mm 4 m/s 752 mmHg 73%
    20:00 +21°C° 0 mm 4 m/s 752 mmHg 79%
    21:00 +20°C° 0 mm 4 m/s 752 mmHg 81%
    22:00 +19°C° 0 mm 3 m/s 752 mmHg 84%
    23:00 +18°C° 0 mm 3 m/s 752 mmHg 86%

    26 Juillet, Vendredi

    Heure Température Précipitation Vent Pression Humidité
    00:00 +18°C° 0 mm 3 m/s 753 mmHg 87%
    01:00 +18°C° 0 mm 3 m/s 753 mmHg 87%
    02:00 +17°C° 0 mm 3 m/s 753 mmHg 88%
    03:00 +17°C° 0 mm 3 m/s 753 mmHg 88%
    04:00 +17°C° 0 mm 3 m/s 752 mmHg 88%
    05:00 +17°C° 0 mm 3 m/s 752 mmHg 88%
    06:00 +19°C° 0 mm 3 m/s 752 mmHg 81%
    07:00 +21°C° 0 mm 3 m/s 752 mmHg 75%
    08:00 +24°C° 0 mm 3 m/s 752 mmHg 68%
    09:00 +26°C° 0 mm 4 m/s 752 mmHg 64%
    10:00 +27°C° 0 mm 4 m/s 752 mmHg 59%
    11:00 +28°C° 0 mm 4 m/s 752 mmHg 55%
    12:00 +28°C° 0.3 mm 4 m/s 751 mmHg 55%
    13:00 +29°C° 0.3 mm 5 m/s 751 mmHg 55%
    14:00 +29°C° 0.3 mm 5 m/s 750 mmHg 55%
    15:00 +28°C° 0.3 mm 4 m/s 750 mmHg 55%
    16:00 +28°C° 0.3 mm 4 m/s 750 mmHg 56%
    17:00 +28°C° 0.3 mm 3 m/s 749 mmHg 57%
    18:00 +26°C° 0.2 mm 3 m/s 749 mmHg 64%
    19:00 +24°C° 0.2 mm 2 m/s 749 mmHg 72%
    20:00 +23°C° 0.2 mm 2 m/s 749 mmHg 80%
    21:00 +21°C° 0.3 mm 2 m/s 749 mmHg 83%
    22:00 +20°C° 0.3 mm 2 m/s 748 mmHg 86%
    23:00 +20°C° 0.3 mm 3 m/s 748 mmHg 90%
    Voir plus